• In Germany
  • List of Countries
  • For 7 days
  • Water Temperature
  • Satellite Maps
  • Weather Map
  • Weather Widgets
  • user-avatar
    Login

    Hourly Weather Kłodzko

    Today, 24 September, Monday

    Time Temperature Precipitation Wind Pressure Humidity
    00:00 +10°C° 0.4 mm 8 mps 728 mmHg 87%
    01:00 +9°C° 0 mm 8 mps 730 mmHg 84%
    02:00 +7°C° 0.1 mm 8 mps 731 mmHg 84%
    03:00 +6°C° 0.1 mm 7 mps 733 mmHg 84%
    04:00 +5°C° 0.1 mm 7 mps 734 mmHg 84%
    05:00 +5°C° 0 mm 7 mps 735 mmHg 82%
    06:00 +6°C° 0 mm 7 mps 736 mmHg 80%
    07:00 +7°C° 0 mm 6 mps 737 mmHg 78%
    08:00 +6°C° 0 mm 7 mps 737 mmHg 74%
    09:00 +7°C° 0 mm 8 mps 738 mmHg 70%
    10:00 +8°C° 0 mm 9 mps 739 mmHg 65%
    11:00 +8°C° 0.1 mm 9 mps 739 mmHg 62%
    12:00 +10°C° 0.1 mm 9 mps 739 mmHg 58%
    13:00 +11°C° 0.1 mm 9 mps 740 mmHg 54%
    14:00 +10°C° 0.1 mm 9 mps 740 mmHg 55%
    15:00 +10°C° 0.1 mm 8 mps 740 mmHg 55%
    16:00 +10°C° 0.1 mm 8 mps 740 mmHg 56%
    17:00 +9°C° 0 mm 7 mps 741 mmHg 61%
    18:00 +8°C° 0 mm 6 mps 741 mmHg 66%
    19:00 +6°C° 0 mm 5 mps 741 mmHg 70%
    20:00 +6°C° 0.1 mm 5 mps 742 mmHg 72%
    21:00 +6°C° 0.1 mm 4 mps 743 mmHg 75%
    22:00 +6°C° 0.1 mm 4 mps 743 mmHg 77%
    23:00 +5°C° 0.1 mm 4 mps 743 mmHg 78%

    Tomorrow, 25 September, Tuesday

    Time Temperature Precipitation Wind Pressure Humidity
    00:00 +5°C° 0.1 mm 4 mps 744 mmHg 80%
    01:00 +4°C° 0.1 mm 4 mps 744 mmHg 81%
    02:00 +4°C° 0 mm 4 mps 744 mmHg 82%
    03:00 +3°C° 0 mm 4 mps 745 mmHg 84%
    04:00 +3°C° 0 mm 4 mps 745 mmHg 85%
    05:00 +3°C° 0 mm 4 mps 746 mmHg 85%
    06:00 +3°C° 0 mm 3 mps 746 mmHg 84%
    07:00 +4°C° 0 mm 3 mps 747 mmHg 83%
    08:00 +5°C° 0 mm 4 mps 748 mmHg 76%
    09:00 +7°C° 0 mm 4 mps 748 mmHg 69%
    10:00 +8°C° 0 mm 5 mps 749 mmHg 61%
    11:00 +9°C° 0.1 mm 5 mps 749 mmHg 58%
    12:00 +11°C° 0.1 mm 4 mps 749 mmHg 54%
    13:00 +12°C° 0.1 mm 4 mps 749 mmHg 51%
    14:00 +12°C° 0 mm 4 mps 749 mmHg 51%
    15:00 +11°C° 0 mm 4 mps 749 mmHg 51%
    16:00 +11°C° 0 mm 3 mps 749 mmHg 52%
    17:00 +10°C° 0 mm 3 mps 749 mmHg 58%
    18:00 +8°C° 0 mm 2 mps 750 mmHg 64%
    19:00 +8°C° 0 mm 1 mps 750 mmHg 70%
    20:00 +7°C° 0 mm 1 mps 750 mmHg 71%
    21:00 +7°C° 0 mm 1 mps 750 mmHg 72%
    22:00 +6°C° 0 mm 1 mps 751 mmHg 73%
    23:00 +6°C° 0 mm 1 mps 751 mmHg 73%

    Day after tomorrow, 26 September, Wednesday

    Time Temperature Precipitation Wind Pressure Humidity
    00:00 +6°C° 0 mm 1 mps 751 mmHg 73%
    01:00 +6°C° 0 mm 1 mps 751 mmHg 74%
    02:00 +5°C° 0 mm 1 mps 751 mmHg 74%
    03:00 +5°C° 0 mm 1 mps 750 mmHg 74%
    04:00 +5°C° 0 mm 1 mps 750 mmHg 75%
    05:00 +4°C° 0 mm 2 mps 750 mmHg 74%
    06:00 +5°C° 0 mm 2 mps 750 mmHg 73%
    07:00 +5°C° 0 mm 2 mps 750 mmHg 72%
    08:00 +7°C° 0 mm 2 mps 750 mmHg 65%
    09:00 +10°C° 0 mm 3 mps 750 mmHg 58%
    10:00 +12°C° 0 mm 4 mps 750 mmHg 51%
    11:00 +13°C° 0 mm 4 mps 749 mmHg 48%
    12:00 +13°C° 0 mm 4 mps 749 mmHg 46%
    13:00 +14°C° 0 mm 4 mps 749 mmHg 43%
    14:00 +14°C° 0 mm 4 mps 748 mmHg 45%
    15:00 +14°C° 0 mm 4 mps 747 mmHg 46%
    16:00 +14°C° 0 mm 4 mps 747 mmHg 48%
    17:00 +13°C° 0 mm 3 mps 747 mmHg 52%
    18:00 +11°C° 0 mm 3 mps 747 mmHg 56%
    19:00 +10°C° 0 mm 3 mps 747 mmHg 59%
    20:00 +9°C° 0 mm 3 mps 747 mmHg 60%
    21:00 +9°C° 0 mm 3 mps 747 mmHg 61%
    22:00 +8°C° 0 mm 3 mps 747 mmHg 62%
    23:00 +8°C° 0 mm 3 mps 746 mmHg 63%

    27 September, Thursday

    Time Temperature Precipitation Wind Pressure Humidity
    00:00 +8°C° 0 mm 3 mps 746 mmHg 63%
    01:00 +8°C° 0 mm 2 mps 746 mmHg 64%
    02:00 +8°C° 0 mm 2 mps 746 mmHg 64%
    03:00 +8°C° 0 mm 2 mps 745 mmHg 64%
    04:00 +8°C° 0 mm 2 mps 745 mmHg 65%
    05:00 +8°C° 0 mm 2 mps 745 mmHg 64%
    06:00 +9°C° 0 mm 2 mps 745 mmHg 63%
    07:00 +9°C° 0 mm 2 mps 745 mmHg 62%
    08:00 +13°C° 0 mm 2 mps 745 mmHg 57%
    09:00 +14°C° 0 mm 3 mps 745 mmHg 52%
    10:00 +17°C° 0 mm 3 mps 745 mmHg 46%
    11:00 +18°C° 0 mm 3 mps 745 mmHg 46%
    12:00 +19°C° 0 mm 3 mps 745 mmHg 46%
    13:00 +21°C° 0 mm 3 mps 744 mmHg 45%
    14:00 +21°C° 0 mm 3 mps 744 mmHg 47%
    15:00 +20°C° 0 mm 3 mps 744 mmHg 49%
    16:00 +20°C° 0 mm 2 mps 743 mmHg 51%
    17:00 +18°C° 0 mm 2 mps 743 mmHg 55%
    18:00 +16°C° 0 mm 2 mps 743 mmHg 59%
    19:00 +15°C° 0 mm 2 mps 742 mmHg 63%
    20:00 +14°C° 0 mm 2 mps 742 mmHg 62%
    21:00 +14°C° 0 mm 2 mps 742 mmHg 62%
    22:00 +13°C° 0 mm 2 mps 742 mmHg 62%
    23:00 +13°C° 0 mm 2 mps 742 mmHg 63%

    28 September, Friday

    Time Temperature Precipitation Wind Pressure Humidity
    00:00 +13°C° 0 mm 2 mps 741 mmHg 64%
    01:00 +12°C° 0 mm 2 mps 741 mmHg 65%
    02:00 +12°C° 0 mm 2 mps 740 mmHg 66%
    03:00 +10°C° 0 mm 2 mps 740 mmHg 67%
    04:00 +10°C° 0 mm 2 mps 740 mmHg 67%
    05:00 +11°C° 0 mm 1 mps 739 mmHg 67%
    06:00 +12°C° 0 mm 1 mps 739 mmHg 66%
    07:00 +12°C° 0 mm 1 mps 739 mmHg 65%
    08:00 +14°C° 0 mm 1 mps 739 mmHg 59%
    09:00 +16°C° 0 mm 2 mps 739 mmHg 53%
    10:00 +19°C° 0 mm 2 mps 739 mmHg 46%
    11:00 +19°C° 0 mm 2 mps 739 mmHg 44%
    12:00 +20°C° 0 mm 2 mps 739 mmHg 43%
    13:00 +21°C° 0 mm 2 mps 739 mmHg 41%
    14:00 +21°C° 0 mm 2 mps 738 mmHg 43%
    15:00 +21°C° 0 mm 2 mps 738 mmHg 46%
    16:00 +20°C° 0 mm 2 mps 738 mmHg 49%
    17:00 +19°C° 0 mm 1 mps 738 mmHg 56%
    18:00 +16°C° 0 mm 1 mps 738 mmHg 64%
    19:00 +14°C° 0 mm 1 mps 738 mmHg 71%
    20:00 +14°C° 0 mm 1 mps 738 mmHg 75%
    21:00 +13°C° 0 mm 2 mps 738 mmHg 79%
    22:00 +12°C° 0 mm 2 mps 738 mmHg 83%
    23:00 +12°C° 0.1 mm 2 mps 738 mmHg 86%

    29 September, Saturday

    Time Temperature Precipitation Wind Pressure Humidity
    00:00 +12°C° 0.1 mm 2 mps 738 mmHg 88%
    01:00 +12°C° 0.1 mm 2 mps 738 mmHg 91%
    02:00 +10°C° 0.1 mm 2 mps 738 mmHg 91%
    03:00 +10°C° 0.1 mm 2 mps 739 mmHg 92%
    04:00 +10°C° 0.1 mm 2 mps 739 mmHg 93%
    05:00 +10°C° 0 mm 2 mps 739 mmHg 91%
    06:00 +10°C° 0 mm 3 mps 740 mmHg 90%
    07:00 +9°C° 0 mm 3 mps 740 mmHg 89%
    08:00 +10°C° 0 mm 3 mps 740 mmHg 84%
    09:00 +11°C° 0 mm 3 mps 741 mmHg 78%
    10:00 +11°C° 0 mm 3 mps 741 mmHg 73%
    11:00 +12°C° 0 mm 3 mps 741 mmHg 69%
    12:00 +12°C° 0 mm 3 mps 741 mmHg 65%
    13:00 +13°C° 0 mm 3 mps 741 mmHg 62%
    14:00 +13°C° 0 mm 3 mps 741 mmHg 60%
    15:00 +13°C° 0 mm 3 mps 741 mmHg 59%
    16:00 +13°C° 0 mm 3 mps 741 mmHg 58%
    17:00 +11°C° 0 mm 3 mps 742 mmHg 63%
    18:00 +10°C° 0 mm 2 mps 742 mmHg 68%
    19:00 +8°C° 0 mm 2 mps 742 mmHg 73%
    20:00 +8°C° 0 mm 2 mps 742 mmHg 74%
    21:00 +7°C° 0 mm 2 mps 742 mmHg 75%
    22:00 +6°C° 0 mm 2 mps 742 mmHg 76%
    23:00 +6°C° 0 mm 2 mps 742 mmHg 77%
    Show more